This is the latest recevied weather packets stored in our database for station/object KF7PIZ. If no packets are shown the sender has not sent any weather packets the latest 10 day(s).
| Time | Temp. | Humidity | Pressure | Rain* | Wind** | Luminosity | Snow |
|---|---|---|---|---|---|---|---|
| 1777505472 | 23.89° C | 22% | 1017.3 hPa | 0 mm | - | 62 W/m² | - |
| 1777505168 | 22.78° C | 24% | 1017.2 hPa | 0 mm | - | 164 W/m² | - |
| 1777504865 | 23.89° C | 27% | 1017.5 hPa | 0 mm | - | 88 W/m² | - |
| 1777504562 | 22.22° C | 26% | 1017.3 hPa | 0 mm | - | 51 W/m² | - |
| 1777504258 | 22.78° C | 26% | 1017.7 hPa | 0 mm | - | 39 W/m² | - |
| 1777503954 | 22.78° C | 21% | 1017.3 hPa | 0 mm | - | 135 W/m² | - |
| 1777503650 | 22.22° C | 22% | 1017.5 hPa | 0 mm | - | 59 W/m² | - |
| 1777503347 | 21.67° C | 27% | 1017.7 hPa | 0 mm | - | 61 W/m² | - |
| 1777503043 | 22.22° C | 22% | 1017.9 hPa | 0 mm | - | 66 W/m² | - |
| 1777502741 | 22.22° C | 23% | 1017.5 hPa | 0 mm | - | 135 W/m² | - |
| 1777502438 | 22.22° C | 23% | 1017.7 hPa | 0 mm | - | 204 W/m² | - |
| 1777502135 | 21.67° C | 27% | 1017.8 hPa | 0 mm | - | 73 W/m² | - |
| 1777501832 | 21.67° C | 23% | 1017.9 hPa | 0 mm | - | 65 W/m² | - |
| 1777501529 | 21.67° C | 24% | 1017.8 hPa | 0 mm | - | 64 W/m² | - |
| 1777501226 | 21.11° C | 24% | 1017.9 hPa | 0 mm | - | 110 W/m² | - |
| 1777500924 | 22.78° C | 24% | 1018.2 hPa | 0 mm | - | 58 W/m² | - |
| 1777500621 | 22.78° C | 22% | 1018.1 hPa | 0 mm | - | 298 W/m² | - |
| 1777500318 | 22.22° C | 22% | 1018.2 hPa | 0 mm | - | 55 W/m² | - |
| 1777500014 | 22.22° C | 27% | 1018.2 hPa | 0 mm | - | 110 W/m² | - |
| 1777499710 | 21.67° C | 22% | 1018.2 hPa | 0 mm | - | 203 W/m² | - |
| 1777499408 | 21.67° C | 24% | 1018.3 hPa | 0 mm | - | 153 W/m² | - |
| 1777499106 | 21.11° C | 24% | 1018.3 hPa | 0 mm | - | 66 W/m² | - |
| 1777498802 | 21.11° C | 29% | 1018.6 hPa | 0 mm | - | 643 W/m² | - |
| 1777498498 | 22.22° C | 22% | 1018.6 hPa | 0 mm | - | 657 W/m² | - |
| 1777498195 | 22.22° C | 22% | 1018.5 hPa | 0 mm | - | 714 W/m² | - |
* Rain latest hour (hover to see other rain measurements)
** Current wind speed in m/s (hover to see current wind gust speed)